Meridian, MS

5:48 AM CDT on October 21, 2017 (GMT -0500)
Key

Weather History for KMEI - October, 2013

Change the Weather History Date:

Wednesday, October 16, 2013

  Actual Average Record
Temperature  
Mean Temperature 74 °F 64 °F  
Max Temperature 82 °F 77 °F 93 °F (1990)
Min Temperature 65 °F 51 °F 33 °F (1987)
Degree Days  
Heating Degree Days 0 4  
Month to date heating degree days 4 35  
Since 1 July heating degree days 4 42  
Cooling Degree Days 9 3  
Month to date cooling degree days 106 64  
Year to date cooling degree days 2026 1987  
Growing Degree Days 23 (Base 50)    
Moisture  
Dew Point 66 °F    
Average Humidity 80    
Maximum Humidity 97    
Minimum Humidity 62    
Precipitation  
Precipitation 0.04 in 0.12 in 2.49 in (1975)
Month to date precipitation 1.39 1.86  
Year to date precipitation 53.64 44.25  
Sea Level Pressure  
Sea Level Pressure 29.96 in    
Wind  
Wind Speed 4 mph (SSW)    
Max Wind Speed 17 mph    
Max Gust Speed 21 mph    
Visibility 10 miles    
Events      
T = Trace of Precipitation, MM = Missing Value Source: NWS Daily Summary

Daily Weather History Graph

Daily Weather History Graph

Search for Another Location

Airport or City:

Trip Planner

Search our weather history database for the weather conditions in past years. The results will help you decide how hot, cold, wet, or windy it might be!

Date:

Astronomy

Oct. 16, 2013 Rise Set
Actual Time 6:59 AM CDT 6:20 PM CDT
Civil Twilight 6:34 AM CDT 6:45 PM CDT
Nautical Twilight 6:06 AM CDT 7:14 PM CDT
Astronomical Twilight 5:37 AM CDT 7:42 PM CDT
Moon 4:54 PM CDT (10/16) 4:34 AM CDT (10/16)
Length of Visible Light 12h 10m
Length of Day
11h 21m
Waxing Gibbous, 94% of the Moon is Illuminated
Oct 16
Waxing Gibbous
Oct 18
Full
Oct 26
Last Quarter
Nov 3
New
Nov 9
First Quarter

Hourly Weather History & Observations

Time (CDT) Temp. Heat Index Dew Point Humidity Pressure Visibility Wind Dir Wind Speed Gust Speed Precip Events Conditions
12:58 AM 68.0 °F - 63.0 °F 84% 29.99 in 10.0 mi SSE 6.9 mph - N/A   Partly Cloudy
1:58 AM 66.0 °F - 63.0 °F 90% 29.99 in 10.0 mi South 4.6 mph - N/A   Clear
2:58 AM 66.0 °F - 63.0 °F 90% 29.97 in 10.0 mi South 4.6 mph - N/A   Partly Cloudy
3:58 AM 64.9 °F - 63.0 °F 93% 29.97 in 10.0 mi South 4.6 mph - N/A   Overcast
4:58 AM 64.9 °F - 63.0 °F 93% 29.97 in 10.0 mi Calm Calm - N/A   Overcast
5:58 AM 66.0 °F - 64.0 °F 93% 29.98 in 10.0 mi Calm Calm - N/A   Overcast
6:58 AM 66.0 °F - 64.0 °F 93% 29.99 in 10.0 mi SSW 3.5 mph - N/A   Overcast
7:58 AM 66.9 °F - 64.0 °F 90% 29.99 in 10.0 mi South 6.9 mph - N/A   Mostly Cloudy
8:58 AM 69.1 °F - 64.0 °F 84% 30.01 in 10.0 mi South 9.2 mph - N/A   Overcast
9:58 AM 70.0 °F - 64.9 °F 84% 30.01 in 10.0 mi South 8.1 mph - N/A   Overcast
10:58 AM 71.1 °F - 66.0 °F 84% 30.01 in 10.0 mi SSW 6.9 mph - N/A   Overcast
11:58 AM 73.0 °F - 66.9 °F 81% 29.99 in 10.0 mi South 8.1 mph - N/A   Overcast
12:58 PM 77.0 °F - 66.9 °F 71% 29.96 in 10.0 mi South 9.2 mph - N/A   Mostly Cloudy
1:58 PM 80.1 °F 82.7 °F 68.0 °F 67% 29.93 in 10.0 mi SSW 6.9 mph - N/A   Mostly Cloudy
2:58 PM 80.1 °F 82.3 °F 66.9 °F 64% 29.91 in 10.0 mi South 8.1 mph - N/A   Overcast
3:58 PM 79.0 °F - 66.9 °F 66% 29.91 in 10.0 mi SSW 8.1 mph - N/A   Overcast
4:58 PM 73.9 °F - 69.1 °F 85% 29.92 in 10.0 mi SSW 5.8 mph - 0.00 in   Overcast
5:58 PM 73.0 °F - 68.0 °F 84% 29.93 in 10.0 mi WNW 8.1 mph - N/A   Overcast
6:58 PM 71.1 °F - 66.9 °F 87% 29.94 in 10.0 mi North 3.5 mph - N/A   Overcast
7:58 PM 70.0 °F - 66.9 °F 90% 29.95 in 10.0 mi NW 3.5 mph - N/A   Mostly Cloudy
8:58 PM 70.0 °F - 68.0 °F 93% 29.96 in 10.0 mi Calm Calm - N/A   Overcast
9:58 PM 70.0 °F - 68.0 °F 93% 29.96 in 10.0 mi Calm Calm - N/A   Overcast
10:58 PM 70.0 °F - 66.9 °F 90% 29.95 in 10.0 mi Calm Calm - N/A   Overcast
11:58 PM 69.1 °F - 66.9 °F 93% 29.94 in 10.0 mi Calm Calm - N/A   Overcast